Voltar ao catálogo

THEOS

AtivoCiênciaSSO
NORAD 33396·PAYLOAD·🇹🇭 Thailand

Lançado Oct 1, 2008 de Dombarovsky

Loading…

Próximas Passagens (próximas 24 horas)

TLE

AtualizadoSource: Space-Track

Época: Sep 14, 2026, 14:07 UTC

1 33396U 08049A   26257.58832907 -.00000206  00000-0 -76606-4 0  9998
2 33396  98.5482 311.9300 0001330  87.6306 272.5023 14.20141807930658

Acompanhe THEOS em tempo real com AllMySat

Download on the App Store